WXM80 ListenWXM80 Stop

You find our weather info also at:

UK Metoffice

WeatherCloud

Weather Underground

Northeastern Weather Network

AWEKAS

Citizen Weather Observer Program (CWOP)

HAMweather, WeatherForYou, PWS Weather


Weather Underground History page Text

Daily Summary for December 24, 2017 Units:  Metric    English   Both
« Previous Day
Next Day »
Daily Weekly Monthly Yearly Custom
  High: Low: Average:
Temperature: 6.3 °C 2.6 °C 3.9 °C
Dew Point: 5.1 °C -1.4 °C 0.5 °C
Humidity: 94 % 65 % 79 %
Wind Speed: 19.8 km/h 1.4 km/h 10 km/h
Wind Gust: 29.6 km/h - -
Wind:- - SE
Pressure: 1023.6 hPa 1010.7 hPa -
Precipitation: 0 mm    
Historical Graphs
 
 
Tabular Data for December 24, 2017
Time Temperature Dew Point Pressure Wind Wind Speed Wind Gust Humidity Rainfall Rate (Hourly)
00:03 6.3 °C 5.1 °C 1013.1 hPa NNW 6 km/h 18.5 km/h 92 % 0 mm
00:07 6.2 °C 5 °C 1013.1 hPa North 3.7 km/h 11.1 km/h 92 % 0 mm
00:12 6.2 °C 4.9 °C 1013.4 hPa NNW 7.9 km/h 11.1 km/h 92 % 0 mm
00:13 6.2 °C 4.8 °C 1013.4 hPa NNW 7.1 km/h 13 km/h 91 % 0 mm
00:14 6.2 °C 4.8 °C 1013.4 hPa NNW 6.6 km/h 14.8 km/h 91 % 0 mm
00:19 6.1 °C 4.7 °C 1013.8 hPa North 8 km/h 11.1 km/h 91 % 0 mm
00:20 6.1 °C 4.7 °C 1013.8 hPa NNW 4.8 km/h 13 km/h 91 % 0 mm
00:22 6.1 °C 4.7 °C 1013.8 hPa NNE 6 km/h 11.1 km/h 91 % 0 mm
00:27 6 °C 4.7 °C 1014.1 hPa NNE 6.3 km/h 18.5 km/h 91 % 0 mm
00:28 6 °C 4.7 °C 1014.1 hPa North 9.5 km/h 18.5 km/h 91 % 0 mm
00:34 5.9 °C 4.6 °C 1014.1 hPa North 7.6 km/h 11.1 km/h 91 % 0 mm
00:35 5.9 °C 4.6 °C 1014.1 hPa North 4.7 km/h 11.1 km/h 91 % 0 mm
00:39 5.9 °C 4.6 °C 1014.1 hPa North 4.2 km/h 12.9 km/h 91 % 0 mm
00:42 5.9 °C 4.6 °C 1014.4 hPa WNW 5.8 km/h 11.1 km/h 91 % 0 mm
00:48 5.9 °C 4.6 °C 1014.4 hPa NNW 5.8 km/h 5.8 km/h 91 % 0 mm
00:51 5.9 °C 4.6 °C 1014.1 hPa NW 3.2 km/h 11.3 km/h 91 % 0 mm
00:52 5.9 °C 4.6 °C 1014.1 hPa NW 2.9 km/h 5.6 km/h 91 % 0 mm
00:57 5.9 °C 4.7 °C 1014.1 hPa NNW 5.5 km/h 7.4 km/h 92 % 0 mm
00:59 5.9 °C 4.7 °C 1014.1 hPa NNW 6.8 km/h 14.8 km/h 92 % 0 mm
01:02 5.9 °C 4.7 °C 1014.4 hPa WNW 6.9 km/h 14.8 km/h 92 % 0 mm
01:05 5.9 °C 4.6 °C 1014.4 hPa WNW 7.4 km/h 13 km/h 91 % 0 mm
01:08 5.9 °C 4.6 °C 1014.4 hPa NW 4.2 km/h 11.3 km/h 91 % 0 mm
01:13 5.8 °C 4.5 °C 1014.8 hPa NNW 5.8 km/h 11.1 km/h 91 % 0 mm
01:14 5.8 °C 4.4 °C 1014.8 hPa NW 6.4 km/h 14.8 km/h 91 % 0 mm
01:17 5.8 °C 4.4 °C 1014.8 hPa WNW 2.3 km/h 5.6 km/h 91 % 0 mm
01:20 5.7 °C 4.4 °C 1014.8 hPa NNW 5.3 km/h 9.3 km/h 91 % 0 mm
01:25 5.7 °C 4.2 °C 1015.1 hPa WNW 5.6 km/h 9.3 km/h 90 % 0 mm
01:26 5.7 °C 4.2 °C 1015.5 hPa NNW 5.5 km/h 11.1 km/h 90 % 0 mm
01:31 5.6 °C 4.1 °C 1015.8 hPa NNW 6.6 km/h 20.4 km/h 90 % 0 mm
01:35 5.6 °C 4.1 °C 1016.1 hPa WSW 5 km/h 14.5 km/h 90 % 0 mm
01:41 5.5 °C 3.8 °C 1015.8 hPa NW 8 km/h 16.1 km/h 89 % 0 mm
01:42 5.5 °C 3.8 °C 1015.8 hPa North 4 km/h 14.8 km/h 89 % 0 mm
01:47 5.4 °C 3.8 °C 1016.1 hPa NW 5.1 km/h 11.1 km/h 89 % 0 mm
01:53 5.4 °C 3.9 °C 1016.1 hPa NW 5 km/h 11.1 km/h 90 % 0 mm
01:58 5.4 °C 3.9 °C 1016.5 hPa WNW 5.1 km/h 6.4 km/h 90 % 0 mm
02:03 5.4 °C 3.7 °C 1016.5 hPa NNW 6.9 km/h 9.7 km/h 89 % 0 mm
02:06 5.3 °C 3.7 °C 1016.5 hPa SSW 2.3 km/h 7.4 km/h 89 % 0 mm
02:11 5.3 °C 3.6 °C 1016.1 hPa NNW 6.1 km/h 11.1 km/h 89 % 0 mm
02:13 5.3 °C 3.4 °C 1016.5 hPa NW 6.9 km/h 8 km/h 88 % 0 mm
02:15 5.2 °C 3.4 °C 1016.5 hPa NNW 5 km/h 11.1 km/h 88 % 0 mm
02:18 5.2 °C 3.4 °C 1016.5 hPa North 4.3 km/h 8 km/h 88 % 0 mm
02:24 5.1 °C 3.3 °C 1016.8 hPa NW 4.3 km/h 9.7 km/h 88 % 0 mm
02:29 5.1 °C 3.2 °C 1016.8 hPa NW 9.3 km/h 14.8 km/h 88 % 0 mm
02:33 4.9 °C 2.9 °C 1017.5 hPa WNW 6.4 km/h 13 km/h 87 % 0 mm
02:36 4.9 °C 2.9 °C 1017.5 hPa WNW 3.2 km/h 14.8 km/h 87 % 0 mm
02:39 4.9 °C 2.9 °C 1017.8 hPa WNW 9.2 km/h 11.1 km/h 87 % 0 mm
02:44 4.8 °C 2.8 °C 1017.8 hPa NW 7.6 km/h 11.3 km/h 87 % 0 mm
02:49 4.8 °C 2.8 °C 1017.8 hPa NW 3.5 km/h 14.5 km/h 87 % 0 mm
02:54 4.8 °C 2.8 °C 1017.2 hPa NW 6.3 km/h 12.9 km/h 87 % 0 mm
02:59 4.8 °C 2.8 °C 1017.2 hPa West 7.9 km/h 11.1 km/h 87 % 0 mm
03:02 4.8 °C 2.8 °C 1017.5 hPa NW 6 km/h 12.9 km/h 87 % 0 mm
03:07 4.7 °C 2.7 °C 1017.5 hPa WNW 5 km/h 11.1 km/h 87 % 0 mm
03:09 4.7 °C 2.7 °C 1017.5 hPa North 6.9 km/h 11.3 km/h 87 % 0 mm
03:14 4.7 °C 2.7 °C 1017.8 hPa WNW 1.9 km/h 5.6 km/h 87 % 0 mm
03:19 4.7 °C 2.7 °C 1018.2 hPa NNW 6.8 km/h 11.1 km/h 87 % 0 mm
03:23 4.7 °C 2.5 °C 1018.2 hPa NW 2.4 km/h 5.6 km/h 86 % 0 mm
03:28 4.7 °C 2.5 °C 1018.8 hPa NW 6.6 km/h 13 km/h 86 % 0 mm
03:30 4.7 °C 2.5 °C 1018.5 hPa NNW 6.6 km/h 16.7 km/h 86 % 0 mm
03:32 4.7 °C 2.5 °C 1018.2 hPa North 7.1 km/h 13 km/h 86 % 0 mm
03:37 4.6 °C 2.4 °C 1018.8 hPa North 6.9 km/h 14.8 km/h 86 % 0 mm
03:41 4.6 °C 2.4 °C 1018.8 hPa NW 4.7 km/h 9.3 km/h 86 % 0 mm
03:46 4.6 °C 2.4 °C 1018.8 hPa NW 1.4 km/h 5.6 km/h 86 % 0 mm
03:50 4.5 °C 2.3 °C 1018.8 hPa NNW 2.9 km/h 5.6 km/h 86 % 0 mm
03:55 4.5 °C 2.3 °C 1018.5 hPa NNW 6.1 km/h 9.3 km/h 86 % 0 mm
03:57 4.5 °C 2.3 °C 1018.8 hPa NNW 4.3 km/h 11.1 km/h 86 % 0 mm
04:00 4.4 °C 2.3 °C 1018.8 hPa NW 2.7 km/h 7.4 km/h 86 % 0 mm
04:04 4.4 °C 2.1 °C 1019.2 hPa NW 2.1 km/h 13 km/h 85 % 0 mm
04:09 4.4 °C 2.3 °C 1019.2 hPa North 8.4 km/h 11.1 km/h 86 % 0 mm
04:10 4.3 °C 2.2 °C 1019.2 hPa North 7.7 km/h 13 km/h 86 % 0 mm
04:15 4.3 °C 2.1 °C 1018.8 hPa NNW 5.8 km/h 14.5 km/h 85 % 0 mm
04:17 4.3 °C 2 °C 1018.8 hPa North 5.8 km/h 9.3 km/h 85 % 0 mm
04:19 4.3 °C 2 °C 1018.8 hPa NNW 6.6 km/h 9.3 km/h 85 % 0 mm
04:24 4.2 °C 1.9 °C 1018.8 hPa North 11.6 km/h 13 km/h 85 % 0 mm
04:26 4.2 °C 1.7 °C 1018.8 hPa NNE 14.5 km/h 20.4 km/h 84 % 0 mm
04:31 4.1 °C 1.8 °C 1019.2 hPa North 8 km/h 16.1 km/h 85 % 0 mm
04:33 4.1 °C 1.7 °C 1019.2 hPa NNE 9.2 km/h 11.3 km/h 84 % 0 mm
04:38 4 °C 1.6 °C 1018.8 hPa North 12.2 km/h 19.3 km/h 84 % 0 mm
04:41 4 °C 1.6 °C 1019.2 hPa NNE 9.3 km/h 13 km/h 84 % 0 mm
04:44 3.9 °C 1.3 °C 1019.2 hPa North 7.6 km/h 11.3 km/h 83 % 0 mm
04:49 3.8 °C 1.2 °C 1018.8 hPa NNW 10.5 km/h 16.7 km/h 83 % 0 mm
04:54 3.7 °C 0.9 °C 1019.2 hPa North 11.4 km/h 12.9 km/h 82 % 0 mm
04:55 3.7 °C 0.9 °C 1019.5 hPa North 10.9 km/h 18.5 km/h 82 % 0 mm
04:59 3.7 °C 0.9 °C 1019.5 hPa NNE 9.8 km/h 18.5 km/h 82 % 0 mm
05:04 3.6 °C 0.8 °C 1019.5 hPa NE 10.6 km/h 17.7 km/h 82 % 0 mm
05:05 3.6 °C 0.8 °C 1019.5 hPa NNW 13 km/h 16.7 km/h 82 % 0 mm
05:10 3.5 °C 0.7 °C 1019.5 hPa NNE 5.8 km/h 9.3 km/h 82 % 0 mm
05:12 3.4 °C 0.7 °C 1019.5 hPa NNE 10.3 km/h 14.5 km/h 82 % 0 mm
05:17 3.4 °C 0.7 °C 1019.5 hPa North 7.9 km/h 16.7 km/h 82 % 0 mm
05:22 3.4 °C 0.8 °C 1019.9 hPa NNE 7.1 km/h 11.1 km/h 83 % 0 mm
05:31 3.3 °C 0.7 °C 1019.9 hPa North 6.1 km/h 13 km/h 83 % 0 mm
05:36 3.2 °C 0.6 °C 1019.9 hPa NW 8 km/h 14.5 km/h 83 % 0 mm
05:37 3.2 °C 0.6 °C 1019.9 hPa NNW 8 km/h 8 km/h 83 % 0 mm
05:42 3.2 °C 0.4 °C 1019.9 hPa NNW 6.6 km/h 12.9 km/h 82 % 0 mm
05:48 3.2 °C 0.4 °C 1019.9 hPa North 6.4 km/h 11.1 km/h 82 % 0 mm
05:53 3.2 °C 0.4 °C 1020.2 hPa NNW 4.5 km/h 11.1 km/h 82 % 0 mm
05:58 3.2 °C 0.4 °C 1020.2 hPa NNW 10.6 km/h 16.7 km/h 82 % 0 mm
05:59 3.2 °C 0.4 °C 1020.2 hPa North 4.7 km/h 16.7 km/h 82 % 0 mm
06:04 3.2 °C 0.4 °C 1020.2 hPa NNE 2.7 km/h 5.6 km/h 82 % 0 mm
06:06 3.2 °C 0.4 °C 1020.2 hPa NW 9 km/h 13 km/h 82 % 0 mm
06:07 3.2 °C 0.4 °C 1020.2 hPa North 8.4 km/h 13 km/h 82 % 0 mm
06:12 3.1 °C 0.2 °C 1020.5 hPa North 5.3 km/h 11.3 km/h 81 % 0 mm
06:13 3.1 °C 0.2 °C 1020.5 hPa NNW 7.4 km/h 13 km/h 81 % 0 mm
06:14 3.1 °C 0.2 °C 1020.5 hPa North 10.1 km/h 16.1 km/h 81 % 0 mm
06:19 3.1 °C 0.1 °C 1020.5 hPa NNW 3.1 km/h 5.6 km/h 81 % 0 mm
06:20 3.1 °C 0.1 °C 1020.5 hPa NNW 4 km/h 7.4 km/h 81 % 0 mm
06:21 3.1 °C 0.1 °C 1020.5 hPa North 4.5 km/h 11.3 km/h 81 % 0 mm
06:26 3.1 °C 0.1 °C 1020.5 hPa North 4.7 km/h 14.8 km/h 81 % 0 mm
06:27 3.1 °C 0.1 °C 1020.5 hPa North 6 km/h 14.8 km/h 81 % 0 mm
06:32 3.1 °C 0.1 °C 1020.5 hPa North 7.2 km/h 14.8 km/h 81 % 0 mm
06:35 3 °C 0.1 °C 1020.5 hPa NNE 6.4 km/h 11.1 km/h 81 % 0 mm
06:40 3 °C 0.1 °C 1020.5 hPa North 4 km/h 7.4 km/h 81 % 0 mm
06:45 3 °C 0.1 °C 1020.9 hPa North 7.1 km/h 13 km/h 81 % 0 mm
06:50 3 °C 0.1 °C 1020.5 hPa North 6.4 km/h 9.3 km/h 81 % 0 mm
06:55 2.9 °C -0.2 °C 1020.9 hPa North 7.7 km/h 13 km/h 80 % 0 mm
07:00 2.9 °C -0.2 °C 1020.9 hPa NNW 9.2 km/h 14.5 km/h 80 % 0 mm
07:02 2.9 °C -0.2 °C 1020.9 hPa North 7.6 km/h 12.9 km/h 80 % 0 mm
07:05 2.9 °C -0.2 °C 1020.9 hPa NNE 6 km/h 14.8 km/h 80 % 0 mm
07:08 2.9 °C -0.2 °C 1021.2 hPa NNW 6.9 km/h 13 km/h 80 % 0 mm
07:13 2.9 °C -0.2 °C 1021.2 hPa North 6.8 km/h 13 km/h 80 % 0 mm
07:14 2.9 °C -0.2 °C 1021.2 hPa North 7.2 km/h 9.7 km/h 80 % 0 mm
07:19 2.8 °C -0.3 °C 1021.2 hPa NNE 6.9 km/h 13 km/h 80 % 0 mm
07:22 2.8 °C -0.3 °C 1020.9 hPa NNE 10.3 km/h 13 km/h 80 % 0 mm
07:27 2.8 °C -0.5 °C 1020.9 hPa NNE 7.9 km/h 11.1 km/h 79 % 0 mm
07:29 2.8 °C -0.5 °C 1020.9 hPa NNW 9.3 km/h 14.8 km/h 79 % 0 mm
07:34 2.8 °C -0.3 °C 1020.9 hPa North 5.5 km/h 9.3 km/h 80 % 0 mm
07:37 2.7 °C -0.4 °C 1021.2 hPa NNE 6.4 km/h 7.4 km/h 80 % 0 mm
07:42 2.7 °C -0.2 °C 1021.2 hPa NNE 8.7 km/h 13 km/h 81 % 0 mm
07:46 2.7 °C -0.2 °C 1021.2 hPa North 10.1 km/h 18.5 km/h 81 % 0 mm
07:51 2.8 °C -0.2 °C 1021.2 hPa NE 13 km/h 18.5 km/h 81 % 0 mm
07:56 2.8 °C -0.5 °C 1021.6 hPa North 14.6 km/h 20.4 km/h 79 % 0 mm
07:58 2.8 °C -0.7 °C 1021.6 hPa NNE 8.2 km/h 13 km/h 78 % 0 mm
08:03 2.8 °C -0.7 °C 1021.6 hPa NNW 8.5 km/h 12.9 km/h 78 % 0 mm
08:04 2.8 °C -0.7 °C 1021.6 hPa North 11.7 km/h 18.5 km/h 78 % 0 mm
08:09 2.8 °C -0.7 °C 1021.6 hPa North 9.2 km/h 18.5 km/h 78 % 0 mm
08:10 2.8 °C -0.7 °C 1021.9 hPa NE 8.5 km/h 13 km/h 78 % 0 mm
08:11 2.8 °C -0.7 °C 1021.9 hPa NNE 11.3 km/h 16.7 km/h 78 % 0 mm
08:16 2.7 °C -0.9 °C 1021.9 hPa NE 8.5 km/h 19.3 km/h 77 % 0 mm
08:17 2.7 °C -0.9 °C 1021.9 hPa North 13.7 km/h 18.5 km/h 77 % 0 mm
08:22 2.7 °C -0.9 °C 1022.2 hPa NNE 9.7 km/h 13 km/h 77 % 0 mm
08:24 2.7 °C -0.7 °C 1022.2 hPa NNE 8 km/h 8 km/h 78 % 0 mm
08:29 2.7 °C -0.9 °C 1022.2 hPa North 8 km/h 16.7 km/h 77 % 0 mm
08:33 2.7 °C -0.9 °C 1022.2 hPa NNE 10.9 km/h 19.3 km/h 77 % 0 mm
08:36 2.7 °C -0.9 °C 1022.2 hPa NNE 11.6 km/h 22.2 km/h 77 % 0 mm
08:39 2.7 °C -0.9 °C 1022.2 hPa North 5.8 km/h 9.7 km/h 77 % 0 mm
08:44 2.8 °C -1.1 °C 1022.6 hPa NNE 10.9 km/h 16.7 km/h 76 % 0 mm
08:45 2.8 °C -1.1 °C 1022.6 hPa North 10.5 km/h 18.5 km/h 76 % 0 mm
08:50 2.8 °C -1 °C 1022.9 hPa NNE 9.5 km/h 14.8 km/h 76 % 0 mm
08:55 2.9 °C -0.9 °C 1023.2 hPa NNE 9.3 km/h 14.8 km/h 76 % 0 mm
08:58 3 °C -1 °C 1022.9 hPa NNW 9.8 km/h 18.5 km/h 75 % 0 mm
09:03 3.1 °C -1.1 °C 1022.9 hPa NNE 14.3 km/h 19.3 km/h 74 % 0 mm
09:08 3.1 °C -1.3 °C 1023.2 hPa ENE 16.6 km/h 20.4 km/h 73 % 0 mm
09:11 3.1 °C -1.4 °C 1023.2 hPa NNE 9.5 km/h 18.5 km/h 72 % 0 mm
09:14 3.2 °C -1 °C 1023.2 hPa NNE 12.1 km/h 14.8 km/h 74 % 0 mm
09:17 3.2 °C -1.2 °C 1023.2 hPa NNE 10.6 km/h 18.5 km/h 73 % 0 mm
09:22 3.2 °C -1.3 °C 1023.2 hPa NE 14 km/h 18.5 km/h 72 % 0 mm
09:26 3.3 °C -1.1 °C 1023.2 hPa North 14.6 km/h 25.9 km/h 73 % 0 mm
09:31 3.3 °C -1.2 °C 1023.2 hPa North 10.9 km/h 19.3 km/h 72 % 0 mm
09:36 3.4 °C -1.1 °C 1023.2 hPa NE 12.6 km/h 16.7 km/h 72 % 0 mm
09:42 3.5 °C -1.1 °C 1023.6 hPa NE 10.6 km/h 14.8 km/h 72 % 0 mm
09:44 3.6 °C -1.2 °C 1023.6 hPa NE 12.4 km/h 18.5 km/h 71 % 0 mm
09:49 3.7 °C -1.1 °C 1023.6 hPa North 11.7 km/h 18.5 km/h 71 % 0 mm
09:54 3.8 °C -1.2 °C 1023.2 hPa NNE 15.8 km/h 24.1 km/h 70 % 0 mm
09:55 3.8 °C -1.2 °C 1023.2 hPa North 13 km/h 20.4 km/h 70 % 0 mm
10:00 3.9 °C -1.1 °C 1023.2 hPa NE 11.7 km/h 18.5 km/h 70 % 0 mm
10:02 3.9 °C -1.1 °C 1023.2 hPa NNE 10.5 km/h 16.7 km/h 70 % 0 mm
10:07 4 °C -1.2 °C 1023.2 hPa NNE 7.9 km/h 14.8 km/h 69 % 0 mm
10:08 4.1 °C -1.1 °C 1023.2 hPa NE 7.7 km/h 14.8 km/h 69 % 0 mm
10:10 4.1 °C -1.1 °C 1023.2 hPa North 11.1 km/h 14.8 km/h 69 % 0 mm
10:15 4.1 °C -1.1 °C 1023.2 hPa NNE 6.9 km/h 11.1 km/h 69 % 0 mm
10:16 4.1 °C -0.9 °C 1023.2 hPa NNE 8 km/h 16.1 km/h 70 % 0 mm
10:20 4.2 °C -0.8 °C 1023.2 hPa North 7.6 km/h 14.8 km/h 70 % 0 mm
10:25 4.2 °C -0.8 °C 1023.2 hPa NE 4.5 km/h 14.8 km/h 70 % 0 mm
10:29 4.2 °C -0.8 °C 1022.9 hPa NE 8.9 km/h 13 km/h 70 % 0 mm
10:33 4.3 °C -1.1 °C 1022.9 hPa NNE 9.7 km/h 16.7 km/h 68 % 0 mm
10:38 4.3 °C -1.1 °C 1023.2 hPa NE 7.7 km/h 9.3 km/h 68 % 0 mm
10:39 4.4 °C -0.8 °C 1023.2 hPa NNE 6 km/h 12.9 km/h 69 % 0 mm
10:44 4.4 °C -0.8 °C 1023.2 hPa North 10.8 km/h 14.8 km/h 69 % 0 mm
10:48 4.5 °C -0.7 °C 1022.9 hPa NNE 8 km/h 14.8 km/h 69 % 0 mm
10:52 4.5 °C -1.1 °C 1022.9 hPa NNE 8.2 km/h 13 km/h 67 % 0 mm
10:53 4.6 °C -1.1 °C 1022.9 hPa NNE 6.9 km/h 11.1 km/h 67 % 0 mm
10:58 4.6 °C -0.8 °C 1022.9 hPa NNE 8.2 km/h 16.7 km/h 68 % 0 mm
10:59 4.6 °C -0.8 °C 1022.9 hPa North 7.2 km/h 11.1 km/h 68 % 0 mm
11:01 4.6 °C -0.8 °C 1022.9 hPa ENE 6.1 km/h 11.1 km/h 68 % 0 mm
11:06 4.6 °C -0.8 °C 1022.9 hPa North 8.5 km/h 13 km/h 68 % 0 mm
11:09 4.6 °C -1.1 °C 1022.9 hPa ENE 9.2 km/h 16.7 km/h 67 % 0 mm
11:15 4.5 °C -0.9 °C 1022.6 hPa NNE 6.9 km/h 11.3 km/h 68 % 0 mm
11:20 4.5 °C -1.1 °C 1022.6 hPa NE 12.1 km/h 16.7 km/h 67 % 0 mm
11:21 4.5 °C -1.1 °C 1022.6 hPa NNE 10 km/h 16.7 km/h 67 % 0 mm
11:26 4.5 °C -1.1 °C 1022.6 hPa NNE 9.8 km/h 16.1 km/h 67 % 0 mm
11:30 4.5 °C -1.1 °C 1022.2 hPa NNE 7.7 km/h 14.8 km/h 67 % 0 mm
11:31 4.5 °C -1.1 °C 1022.2 hPa NE 8 km/h 16.1 km/h 67 % 0 mm
11:36 4.6 °C -0.8 °C 1022.2 hPa NE 4.8 km/h 16.1 km/h 68 % 0 mm
11:37 4.6 °C -0.7 °C 1022.2 hPa North 5 km/h 16.7 km/h 69 % 0 mm
11:42 4.7 °C -0.7 °C 1022.6 hPa NNE 12.1 km/h 14.8 km/h 68 % 0 mm
11:45 4.7 °C -0.7 °C 1022.6 hPa NNE 8 km/h 16.7 km/h 68 % 0 mm
11:50 4.8 °C -0.8 °C 1022.2 hPa NNE 7.6 km/h 13 km/h 67 % 0 mm
11:52 4.8 °C -0.8 °C 1022.2 hPa NNE 10 km/h 14.8 km/h 67 % 0 mm
11:57 4.9 °C -0.7 °C 1022.2 hPa North 8 km/h 13 km/h 67 % 0 mm
12:02 4.9 °C -0.7 °C 1022.2 hPa NE 12.1 km/h 16.7 km/h 67 % 0 mm
12:07 4.9 °C -0.7 °C 1022.2 hPa NNE 12.9 km/h 18.5 km/h 67 % 0 mm
12:12 4.9 °C -0.9 °C 1022.2 hPa NE 10.3 km/h 16.1 km/h 66 % 0 mm
12:13 4.9 °C -0.9 °C 1022.2 hPa NE 5.3 km/h 16.7 km/h 66 % 0 mm
12:19 4.9 °C -0.9 °C 1022.2 hPa NE 7.1 km/h 12.9 km/h 66 % 0 mm
12:21 5 °C -0.8 °C 1022.2 hPa NE 4.2 km/h 8 km/h 66 % 0 mm
12:26 5 °C -0.6 °C 1022.2 hPa NE 3.9 km/h 5.6 km/h 67 % 0 mm
12:31 4.9 °C -0.9 °C 1022.2 hPa ENE 8.2 km/h 14.8 km/h 66 % 0 mm
12:34 4.9 °C -0.7 °C 1022.2 hPa NNE 5.5 km/h 9.3 km/h 67 % 0 mm
12:39 4.9 °C -0.7 °C 1021.9 hPa ENE 7.9 km/h 14.5 km/h 67 % 0 mm
12:40 4.9 °C -0.9 °C 1021.9 hPa ENE 8.9 km/h 11.1 km/h 66 % 0 mm
12:45 4.8 °C -1.2 °C 1021.9 hPa ENE 7.2 km/h 14.8 km/h 65 % 0 mm
12:47 4.7 °C -1.3 °C 1021.6 hPa NE 6.4 km/h 13 km/h 65 % 0 mm
12:51 4.7 °C -1.1 °C 1021.6 hPa NNE 8.5 km/h 13 km/h 66 % 0 mm
12:54 4.8 °C -0.8 °C 1021.6 hPa East 5.6 km/h 11.3 km/h 67 % 0 mm
12:58 4.7 °C -1.1 °C 1021.6 hPa ENE 5.6 km/h 16.1 km/h 66 % 0 mm
13:00 4.7 °C -1.3 °C 1021.2 hPa ENE 6.8 km/h 16.7 km/h 65 % 0 mm
13:05 4.6 °C -1.4 °C 1021.2 hPa ENE 9.2 km/h 14.8 km/h 65 % 0 mm
13:08 4.6 °C -1.2 °C 1021.2 hPa ENE 8.7 km/h 16.7 km/h 66 % 0 mm
13:13 4.7 °C -0.7 °C 1021.6 hPa ENE 3.7 km/h 7.4 km/h 68 % 0 mm
13:14 4.7 °C -0.7 °C 1021.6 hPa NE 3.9 km/h 5.6 km/h 68 % 0 mm
13:19 4.6 °C -1.2 °C 1021.6 hPa ENE 6.4 km/h 18.5 km/h 66 % 0 mm
13:20 4.6 °C -1.2 °C 1021.6 hPa NE 5.8 km/h 11.1 km/h 66 % 0 mm
13:25 4.6 °C -1.3 °C 1021.6 hPa ENE 8.9 km/h 14.8 km/h 66 % 0 mm
13:30 4.5 °C -1.1 °C 1021.6 hPa NE 12.7 km/h 16.7 km/h 67 % 0 mm
13:35 4.4 °C -1.2 °C 1021.6 hPa ENE 8.5 km/h 13 km/h 67 % 0 mm
13:36 4.4 °C -1 °C 1021.6 hPa ENE 7.7 km/h 13 km/h 68 % 0 mm
13:41 4.4 °C -1 °C 1021.6 hPa NE 8.2 km/h 11.1 km/h 68 % 0 mm
13:43 4.3 °C -0.8 °C 1021.6 hPa East 9.8 km/h 14.8 km/h 69 % 0 mm
13:48 4.4 °C -0.6 °C 1021.6 hPa East 9.7 km/h 14.8 km/h 70 % 0 mm
13:53 4.4 °C -0.8 °C 1021.6 hPa ENE 9.7 km/h 14.8 km/h 69 % 0 mm
13:58 4.4 °C -0.8 °C 1021.2 hPa ENE 10.1 km/h 14.8 km/h 69 % 0 mm
14:00 4.4 °C -0.8 °C 1021.2 hPa East 10.3 km/h 13 km/h 69 % 0 mm
14:05 4.4 °C -0.8 °C 1020.9 hPa ENE 9.7 km/h 13 km/h 69 % 0 mm
14:11 4.4 °C -0.8 °C 1020.9 hPa East 9 km/h 11.1 km/h 69 % 0 mm
14:13 4.4 °C -0.6 °C 1021.2 hPa ENE 7.6 km/h 13 km/h 70 % 0 mm
14:18 4.3 °C -0.8 °C 1021.2 hPa East 8.7 km/h 14.5 km/h 69 % 0 mm
14:23 4.3 °C -1.1 °C 1020.9 hPa NE 7.2 km/h 13 km/h 68 % 0 mm
14:27 4.3 °C -0.9 °C 1021.2 hPa ENE 7.4 km/h 13 km/h 69 % 0 mm
14:32 4.2 °C -0.8 °C 1020.9 hPa East 10.3 km/h 16.7 km/h 70 % 0 mm
14:33 4.3 °C -0.9 °C 1020.9 hPa East 9 km/h 13 km/h 69 % 0 mm
14:35 4.3 °C -0.7 °C 1020.9 hPa ENE 6.1 km/h 11.1 km/h 70 % 0 mm
14:40 4.2 °C -0.9 °C 1021.2 hPa East 8 km/h 14.8 km/h 69 % 0 mm
14:41 4.2 °C -0.8 °C 1021.2 hPa East 11.3 km/h 13 km/h 70 % 0 mm
14:45 4.2 °C -0.8 °C 1020.9 hPa ENE 10.1 km/h 16.1 km/h 70 % 0 mm
14:50 4.1 °C -1.3 °C 1020.9 hPa East 10.5 km/h 13 km/h 68 % 0 mm
14:55 4.1 °C -0.9 °C 1020.9 hPa East 10.5 km/h 18.5 km/h 70 % 0 mm
14:58 4.1 °C -0.7 °C 1020.9 hPa ENE 11.7 km/h 14.8 km/h 71 % 0 mm
15:03 4.1 °C -0.6 °C 1020.9 hPa East 7.9 km/h 11.1 km/h 72 % 0 mm
15:08 4 °C -0.6 °C 1020.9 hPa East 12.7 km/h 16.7 km/h 72 % 0 mm
15:10 4 °C -0.6 °C 1020.5 hPa East 10.5 km/h 14.8 km/h 72 % 0 mm
15:15 3.9 °C -0.3 °C 1020.5 hPa ENE 12.1 km/h 14.8 km/h 74 % 0 mm
15:18 3.9 °C -0.4 °C 1020.5 hPa East 10.6 km/h 13 km/h 73 % 0 mm
15:23 3.9 °C -0.7 °C 1020.5 hPa ENE 11.6 km/h 20.4 km/h 72 % 0 mm
15:28 3.8 °C -0.9 °C 1020.5 hPa ENE 11.6 km/h 18.5 km/h 71 % 0 mm
15:33 3.8 °C -0.8 °C 1020.5 hPa ENE 10.5 km/h 18.5 km/h 72 % 0 mm
15:36 3.8 °C -1 °C 1020.5 hPa ENE 15.8 km/h 20.4 km/h 71 % 0 mm
15:41 3.7 °C -1.2 °C 1020.2 hPa NE 13 km/h 22.2 km/h 70 % 0 mm
15:46 3.7 °C -1.1 °C 1020.2 hPa ENE 14.6 km/h 22.5 km/h 71 % 0 mm
15:49 3.7 °C -1.1 °C 1020.2 hPa ENE 15.6 km/h 22.2 km/h 71 % 0 mm
15:54 3.6 °C -1.2 °C 1020.2 hPa ENE 14.6 km/h 22.2 km/h 71 % 0 mm
15:59 3.6 °C -0.9 °C 1019.9 hPa ENE 13 km/h 22.2 km/h 72 % 0 mm
16:04 3.6 °C -0.8 °C 1019.9 hPa East 14.3 km/h 20.4 km/h 73 % 0 mm
16:09 3.6 °C -0.9 °C 1019.9 hPa ENE 14.3 km/h 18.5 km/h 72 % 0 mm
16:13 3.6 °C -0.8 °C 1019.9 hPa ENE 19.3 km/h 27.8 km/h 73 % 0 mm
16:17 3.6 °C -0.8 °C 1019.9 hPa East 15.4 km/h 22.2 km/h 73 % 0 mm
16:20 3.6 °C -0.8 °C 1019.9 hPa NE 15.6 km/h 18.5 km/h 73 % 0 mm
16:25 3.5 °C -1.1 °C 1019.5 hPa ENE 14.5 km/h 24.1 km/h 72 % 0 mm
16:28 3.5 °C -0.9 °C 1019.9 hPa NE 17.2 km/h 22.2 km/h 73 % 0 mm
16:33 3.4 °C -0.8 °C 1019.9 hPa NE 13 km/h 18.5 km/h 74 % 0 mm
16:37 3.4 °C -0.9 °C 1019.9 hPa ENE 13.8 km/h 20.4 km/h 73 % 0 mm
16:43 3.4 °C -1 °C 1019.9 hPa ENE 11.6 km/h 16.7 km/h 73 % 0 mm
16:48 3.3 °C -0.9 °C 1019.9 hPa East 12.2 km/h 16.7 km/h 74 % 0 mm
16:53 3.3 °C -0.9 °C 1019.9 hPa ENE 13.5 km/h 18.5 km/h 74 % 0 mm
16:56 3.3 °C -0.9 °C 1019.9 hPa ENE 12.1 km/h 18.5 km/h 74 % 0 mm
17:01 3.3 °C -0.9 °C 1019.5 hPa ENE 11.7 km/h 18.5 km/h 74 % 0 mm
17:06 3.4 °C -0.6 °C 1019.5 hPa ENE 10 km/h 18.5 km/h 75 % 0 mm
17:09 3.4 °C -0.6 °C 1019.5 hPa ENE 11.7 km/h 19.3 km/h 75 % 0 mm
17:14 3.4 °C -0.4 °C 1019.9 hPa ENE 9.3 km/h 16.1 km/h 76 % 0 mm
17:16 3.4 °C -0.4 °C 1019.9 hPa ENE 11.4 km/h 18.5 km/h 76 % 0 mm
17:21 3.5 °C -0.5 °C 1019.5 hPa ENE 11.6 km/h 18.5 km/h 75 % 0 mm
17:26 3.6 °C -0.3 °C 1019.5 hPa ENE 9 km/h 16.7 km/h 76 % 0 mm
17:31 3.6 °C -0.1 °C 1019.5 hPa ENE 9.8 km/h 13 km/h 77 % 0 mm
17:35 3.6 °C -0.1 °C 1019.5 hPa ENE 11.1 km/h 14.8 km/h 77 % 0 mm
17:36 3.6 °C -0.1 °C 1019.2 hPa East 10.3 km/h 14.8 km/h 77 % 0 mm
17:41 3.7 °C -0.2 °C 1019.2 hPa ESE 4.2 km/h 9.3 km/h 76 % 0 mm
17:46 3.7 °C -0.4 °C 1019.5 hPa ESE 4.8 km/h 9.7 km/h 75 % 0 mm
17:51 3.6 °C -0.6 °C 1019.2 hPa East 3.2 km/h 7.4 km/h 74 % 0 mm
17:56 3.6 °C -0.8 °C 1019.5 hPa East 4.2 km/h 9.3 km/h 73 % 0 mm
18:00 3.6 °C -0.8 °C 1019.5 hPa East 2.7 km/h 5.6 km/h 73 % 0 mm
18:05 3.5 °C -0.9 °C 1019.2 hPa East 9.7 km/h 11.3 km/h 73 % 0 mm
18:11 3.5 °C -0.9 °C 1019.2 hPa East 7.2 km/h 12.9 km/h 73 % 0 mm
18:16 3.5 °C -0.9 °C 1019.2 hPa East 3.2 km/h 11.3 km/h 73 % 0 mm
18:18 3.4 °C -0.9 °C 1019.2 hPa ENE 7.1 km/h 11.1 km/h 73 % 0 mm
18:23 3.4 °C -0.9 °C 1018.8 hPa East 9.7 km/h 13 km/h 73 % 0 mm
18:28 3.5 °C -0.9 °C 1018.8 hPa East 9.2 km/h 13 km/h 73 % 0 mm
18:30 3.5 °C -0.9 °C 1019.2 hPa East 8.4 km/h 13 km/h 73 % 0 mm
18:33 3.5 °C -0.9 °C 1018.8 hPa East 10.5 km/h 13 km/h 73 % 0 mm
18:38 3.6 °C -0.8 °C 1018.5 hPa East 8.4 km/h 11.1 km/h 73 % 0 mm
18:43 3.6 °C -0.8 °C 1018.8 hPa East 7.2 km/h 11.3 km/h 73 % 0 mm
18:45 3.6 °C -0.8 °C 1018.8 hPa East 11.4 km/h 14.5 km/h 73 % 0 mm
18:48 3.7 °C -0.7 °C 1018.8 hPa East 11.3 km/h 14.8 km/h 73 % 0 mm
18:53 3.7 °C -0.7 °C 1018.5 hPa East 11.9 km/h 14.8 km/h 73 % 0 mm
18:58 3.7 °C -0.6 °C 1018.5 hPa East 12.7 km/h 14.8 km/h 74 % 0 mm
19:01 3.7 °C -0.5 °C 1018.8 hPa East 10.8 km/h 14.8 km/h 74 % 0 mm
19:04 3.7 °C -0.7 °C 1018.8 hPa East 10 km/h 16.7 km/h 73 % 0 mm
19:09 3.8 °C -0.6 °C 1018.5 hPa ENE 9.7 km/h 13 km/h 73 % 0 mm
19:14 3.8 °C -0.4 °C 1018.5 hPa ENE 13.8 km/h 20.4 km/h 74 % 0 mm
19:19 3.8 °C 0 °C 1018.2 hPa East 15 km/h 20.4 km/h 76 % 0 mm
19:23 3.8 °C 0 °C 1018.2 hPa ENE 11.9 km/h 14.8 km/h 76 % 0 mm
19:29 3.8 °C 0 °C 1018.2 hPa East 11.9 km/h 16.7 km/h 76 % 0 mm
19:34 3.8 °C 0 °C 1018.2 hPa East 13.8 km/h 20.4 km/h 76 % 0 mm
19:35 3.8 °C 0 °C 1017.8 hPa ENE 13.2 km/h 16.7 km/h 76 % 0 mm
19:40 3.8 °C -0.2 °C 1018.2 hPa East 13.7 km/h 20.4 km/h 75 % 0 mm
19:43 3.9 °C -0.2 °C 1018.2 hPa East 14.3 km/h 22.2 km/h 75 % 0 mm
19:48 3.9 °C 0.1 °C 1017.8 hPa East 13.7 km/h 18.5 km/h 76 % 0 mm
19:49 3.9 °C 0.1 °C 1017.8 hPa East 12.4 km/h 14.8 km/h 76 % 0 mm
19:51 3.9 °C 0.3 °C 1017.8 hPa East 13.2 km/h 16.7 km/h 77 % 0 mm
19:56 3.9 °C 0.3 °C 1017.8 hPa East 15 km/h 18.5 km/h 77 % 0 mm
20:01 3.9 °C 0.3 °C 1017.5 hPa East 13 km/h 18.5 km/h 77 % 0 mm
20:04 3.9 °C 0.3 °C 1017.5 hPa East 13.2 km/h 20.4 km/h 77 % 0 mm
20:06 3.9 °C 0.3 °C 1017.5 hPa East 13.8 km/h 20.4 km/h 77 % 0 mm
20:11 3.9 °C 0.3 °C 1017.5 hPa East 16.7 km/h 20.4 km/h 77 % 0 mm
20:12 3.9 °C 0.3 °C 1017.5 hPa East 13 km/h 20.4 km/h 77 % 0 mm
20:17 3.9 °C 0.4 °C 1017.5 hPa ENE 14.5 km/h 22.5 km/h 78 % 0 mm
20:20 3.9 °C 0.4 °C 1017.5 hPa East 15.6 km/h 18.5 km/h 78 % 0 mm
20:24 3.8 °C 0.3 °C 1017.2 hPa ENE 14.8 km/h 18.5 km/h 78 % 0 mm
20:26 3.8 °C 0.5 °C 1017.2 hPa East 16.1 km/h 24.1 km/h 79 % 0 mm
20:31 3.8 °C 0.4 °C 1016.8 hPa East 17.9 km/h 22.2 km/h 79 % 0 mm
20:36 3.7 °C 0.4 °C 1016.8 hPa East 18.8 km/h 24.1 km/h 79 % 0 mm
20:41 3.7 °C 0.4 °C 1016.8 hPa East 16.9 km/h 24.1 km/h 79 % 0 mm
20:42 3.7 °C 0.6 °C 1016.8 hPa East 16.9 km/h 22.5 km/h 80 % 0 mm
20:43 3.7 °C 0.6 °C 1016.8 hPa East 17.4 km/h 22.2 km/h 80 % 0 mm
20:48 3.7 °C 0.6 °C 1016.5 hPa ENE 18.3 km/h 24.1 km/h 80 % 0 mm
20:50 3.6 °C 0.5 °C 1016.1 hPa ENE 16.6 km/h 22.5 km/h 80 % 0 mm
20:53 3.7 °C 0.7 °C 1016.1 hPa ENE 15.3 km/h 24.1 km/h 81 % 0 mm
20:56 3.6 °C 0.7 °C 1016.1 hPa ENE 17.5 km/h 22.5 km/h 81 % 0 mm
21:01 3.5 °C 0.6 °C 1016.1 hPa ENE 17.4 km/h 24.1 km/h 81 % 0 mm
21:06 3.5 °C 0.7 °C 1016.1 hPa ENE 18.8 km/h 25.9 km/h 82 % 0 mm
21:09 3.5 °C 0.7 °C 1016.1 hPa ENE 14 km/h 20.4 km/h 82 % 0 mm
21:12 3.4 °C 0.7 °C 1016.1 hPa East 18.3 km/h 25.7 km/h 82 % 0 mm
21:17 3.4 °C 0.5 °C 1015.8 hPa East 16.4 km/h 24.1 km/h 81 % 0 mm
21:20 3.4 °C 0.4 °C 1016.1 hPa East 13.2 km/h 22.2 km/h 81 % 0 mm
21:25 3.3 °C 0.4 °C 1015.8 hPa East 19.3 km/h 25.9 km/h 81 % 0 mm
21:29 3.3 °C 0.3 °C 1015.8 hPa East 16.9 km/h 27.8 km/h 81 % 0 mm
21:34 3.2 °C 0.3 °C 1015.8 hPa East 18 km/h 25.9 km/h 81 % 0 mm
21:40 3.1 °C 0.4 °C 1015.8 hPa East 16.6 km/h 20.4 km/h 83 % 0 mm
21:44 2.9 °C 0.7 °C 1015.5 hPa East 14.5 km/h 18.5 km/h 85 % 0 mm
21:49 2.8 °C 0.9 °C 1015.5 hPa East 15.9 km/h 22.2 km/h 87 % 0 mm
21:50 2.8 °C 0.9 °C 1015.5 hPa East 16.9 km/h 18.5 km/h 87 % 0 mm
21:55 2.8 °C 1 °C 1015.1 hPa ENE 18.3 km/h 24.1 km/h 88 % 0 mm
21:59 2.7 °C 0.9 °C 1015.1 hPa East 16.9 km/h 24.1 km/h 88 % 0 mm
22:04 2.7 °C 0.9 °C 1015.1 hPa ENE 16.6 km/h 22.2 km/h 88 % 0 mm
22:07 2.7 °C 1.1 °C 1014.8 hPa East 16.9 km/h 24.1 km/h 89 % 0 mm
22:13 2.7 °C 1.2 °C 1014.4 hPa East 15.9 km/h 25.9 km/h 90 % 0 mm
22:17 2.7 °C 1.2 °C 1014.4 hPa East 19 km/h 27.8 km/h 90 % 0 mm
22:22 2.7 °C 1.2 °C 1014.1 hPa East 16.9 km/h 24.1 km/h 90 % 0 mm
22:27 2.6 °C 1.1 °C 1014.1 hPa East 19.8 km/h 24.1 km/h 90 % 0 mm
22:29 2.6 °C 1.1 °C 1014.1 hPa East 15.3 km/h 20.4 km/h 90 % 0 mm
22:30 2.6 °C 1.3 °C 1014.1 hPa East 18 km/h 20.4 km/h 91 % 0 mm
22:35 2.6 °C 1.3 °C 1013.8 hPa East 18.3 km/h 27.8 km/h 91 % 0 mm
22:38 2.6 °C 1.3 °C 1013.8 hPa East 18.8 km/h 24.1 km/h 91 % 0 mm
22:41 2.7 °C 1.3 °C 1013.8 hPa East 18.8 km/h 25.9 km/h 91 % 0 mm
22:46 2.7 °C 1.5 °C 1013.4 hPa East 15 km/h 22.2 km/h 92 % 0 mm
22:48 2.7 °C 1.5 °C 1013.4 hPa East 18.3 km/h 25.9 km/h 92 % 0 mm
22:54 2.7 °C 1.6 °C 1013.1 hPa ENE 19.5 km/h 24.1 km/h 92 % 0 mm
22:57 2.7 °C 1.6 °C 1013.1 hPa East 18.3 km/h 24.1 km/h 92 % 0 mm
23:02 2.8 °C 1.7 °C 1013.1 hPa East 15.1 km/h 20.9 km/h 92 % 0 mm
23:04 2.8 °C 1.7 °C 1013.1 hPa ENE 13.8 km/h 18.5 km/h 92 % 0 mm
23:09 2.8 °C 1.7 °C 1012.8 hPa ENE 17.4 km/h 29.6 km/h 92 % 0 mm
23:10 2.8 °C 1.7 °C 1012.8 hPa ENE 15.8 km/h 24.1 km/h 92 % 0 mm
23:15 2.8 °C 1.8 °C 1012.4 hPa NE 18.2 km/h 27.8 km/h 93 % 0 mm
23:18 2.8 °C 1.7 °C 1012.4 hPa ENE 16.1 km/h 24.1 km/h 92 % 0 mm
23:21 2.7 °C 1.7 °C 1012.4 hPa ENE 19.5 km/h 27.8 km/h 93 % 0 mm
23:26 2.7 °C 1.7 °C 1012.4 hPa ENE 13.4 km/h 20.4 km/h 93 % 0 mm
23:27 2.8 °C 1.8 °C 1012.1 hPa ENE 19.6 km/h 22.5 km/h 93 % 0 mm
23:32 2.8 °C 1.8 °C 1011.7 hPa East 17.4 km/h 27.8 km/h 93 % 0 mm
23:33 2.8 °C 1.9 °C 1011.7 hPa East 16.9 km/h 24.1 km/h 94 % 0 mm
23:38 2.9 °C 2 °C 1011.7 hPa ENE 18.3 km/h 27.8 km/h 94 % 0 mm
23:39 2.9 °C 2 °C 1011.7 hPa ENE 16.6 km/h 22.2 km/h 94 % 0 mm
23:45 3 °C 2.1 °C 1011.1 hPa ENE 17.9 km/h 24.1 km/h 94 % 0 mm
23:49 3 °C 2.1 °C 1011.1 hPa East 15.9 km/h 20.4 km/h 94 % 0 mm
23:54 3.1 °C 2.2 °C 1010.7 hPa ENE 16.9 km/h 24.1 km/h 94 % 0 mm
23:57 3.1 °C 2.2 °C 1010.7 hPa East 17.9 km/h 22.5 km/h 94 % 0 mm
Crab Meadow Weather
Compliments of Weather Underground - 3.5 mb

Script developed by  Jim McMurry - jmcmurry@mwt.net Adapted for the template by  Wim van der Kuil - Leuven-Template.eu

Recycling: An estimated 80,000,000 Hershey's Kisses are wrapped each day, using enough aluminum foil to cover over 50 acres of space -- that's almost 40 football fields. All that foil is recyclable, but not many people realize it.